Total_Precipitation_Accumulation
1.88 1.93 2.05 1.49 1.24 1.13 1.06 1.06 1.06 0.94 0.90 0.97 0.99 1.02 1.04 1.10 1.14 1.24 1.29 1.28 1.37 1.49 1.62 1.81 1.97 2.04 1.99 1.78 1.60 1.44 1.26 1.21 1.32 1.41 1.47 1.48 1.50 1.78 2.10 2.22 2.08 1.41 1.53
1.50 1.60 1.71 1.35 1.14 1.00 0.94 1.02 0.96 0.86 0.80 0.86 0.88 0.90 0.97 1.04 1.07 1.16 1.24 1.35 1.45 1.53 1.63 1.76 1.84 1.84 1.66 1.41 1.23 1.14 1.12 1.18 1.41 1.59 1.52 1.36 1.50 1.72 2.00 2.05 2.03 1.38 1.46
0.98 1.19 1.22 1.21 1.05 0.94 0.93 0.95 0.91 0.84 0.78 0.85 0.90 0.96 1.05 1.13 1.09 1.07 1.19 1.35 1.45 1.49 1.55 1.66 1.67 1.59 1.36 1.15 1.05 1.00 1.08 1.29 1.57 1.83 1.93 1.24 1.06 1.60 1.96 1.92 1.61 1.28 1.31
0.73 0.88 0.90 0.97 0.90 0.77 0.67 0.71 0.81 0.80 0.80 0.87 0.98 1.10 1.22 1.34 1.31 1.31 1.34 1.39 1.46 1.47 1.49 1.54 1.50 1.32 1.16 1.03 0.95 0.96 1.06 1.36 1.66 2.10 2.02 1.21 0.81 1.23 1.65 1.49 1.31 1.27 1.26
0.64 0.72 0.82 0.75 0.67 0.66 0.60 0.60 0.74 0.84 0.88 0.87 0.97 1.10 1.26 1.50 1.51 1.55 1.59 1.65 1.62 1.50 1.42 1.39 1.35 1.14 1.00 0.90 0.87 0.95 1.07 1.37 1.74 1.87 1.53 1.34 1.20 1.21 1.26 1.26 1.27 1.29 1.28
0.53 0.59 0.61 0.70 0.67 0.63 0.63 0.63 0.69 0.79 0.86 0.89 0.93 1.08 1.25 1.52 1.68 1.75 1.71 1.73 1.65 1.43 1.34 1.27 1.19 0.99 0.87 0.83 0.90 0.97 1.12 1.49 1.54 1.13 1.08 1.10 1.12 1.28 1.20 1.37 1.41 1.39 1.34
0.49 0.57 0.58 0.65 0.66 0.65 0.63 0.69 0.73 0.73 0.81 0.80 0.79 0.91 1.13 1.37 1.67 1.70 1.64 1.57 1.43 1.34 1.30 1.23 1.09 0.89 0.85 0.87 0.96 0.99 1.17 1.49 1.23 0.85 1.05 1.22 1.05 1.06 1.17 1.43 1.57 1.53 1.36
0.59 0.51 0.58 0.68 0.68 0.64 0.60 0.65 0.67 0.69 0.71 0.75 0.76 0.83 1.03 1.21 1.38 1.44 1.40 1.32 1.22 1.24 1.22 1.18 1.05 0.90 0.84 0.87 0.92 0.96 1.15 1.19 0.92 0.83 0.88 0.91 0.84 0.95 1.18 1.38 1.53 1.57 1.38
0.81 0.64 0.61 0.59 0.56 0.57 0.62 0.63 0.66 0.70 0.77 0.82 0.84 0.93 1.11 1.14 1.20 1.19 1.22 1.20 1.20 1.18 1.18 1.08 0.92 0.80 0.74 0.77 0.83 0.90 1.09 1.20 1.02 1.03 0.80 0.79 0.96 1.12 1.31 1.47 1.48 1.42 1.34
1.10 0.90 0.75 0.71 0.71 0.61 0.60 0.70 0.75 0.82 0.91 0.98 1.00 1.10 1.25 1.25 1.21 1.25 1.21 1.20 1.20 1.24 1.21 1.05 0.83 0.69 0.67 0.72 0.81 0.93 1.10 0.98 0.88 0.91 0.84 0.75 1.04 1.23 1.38 1.45 1.45 1.35 1.33
1.54 1.17 0.98 0.89 0.91 0.86 0.73 0.75 0.91 0.97 1.07 1.14 1.30 1.43 1.60 1.60 1.44 1.53 1.39 1.44 1.39 1.41 1.34 1.20 1.03 0.90 0.81 0.81 1.04 1.24 1.05 0.93 1.08 1.13 1.01 0.99 1.16 1.35 1.50 1.49 1.51 1.47 1.42
1.73 1.31 1.18 1.03 0.92 0.92 1.02 1.29 1.37 1.18 1.32 1.56 1.79 1.93 2.16 2.10 1.99 1.64 1.74 1.86 1.95 2.05 1.91 1.75 1.66 1.33 1.12 1.06 1.58 1.81 1.11 0.97 1.06 1.22 1.15 1.14 1.36 1.61 1.75 1.65 1.56 1.52 1.42
1.62 1.40 1.32 1.31 1.29 1.16 1.30 1.51 1.62 1.61 1.76 1.90 1.97 2.08 2.24 1.96 1.86 1.87 1.99 2.21 2.34 2.39 2.23 2.27 2.26 1.93 1.86 1.84 2.05 1.97 1.42 1.34 1.27 1.23 1.28 1.38 1.53 1.80 2.07 1.89 1.69 1.58 1.41
2.08 1.86 1.70 1.70 1.61 1.53 1.50 1.66 1.77 1.78 1.83 1.96 2.06 1.99 2.09 2.22 2.25 2.32 2.52 2.45 2.55 2.67 2.93 2.57 2.68 2.53 2.35 2.25 2.23 2.09 1.78 1.76 1.75 1.73 1.87 1.67 1.62 1.93 2.27 2.17 1.96 1.77 1.61
2.62 2.60 2.34 2.05 1.89 1.85 1.97 1.98 1.90 1.97 2.06 2.14 2.28 2.20 2.19 2.43 2.54 2.59 2.58 2.65 2.46 2.56 2.88 2.96 2.75 2.94 2.99 2.80 2.58 2.32 2.23 2.06 1.94 1.96 2.04 1.95 1.91 2.00 2.28 2.46 2.30 2.11 1.91
2.81 2.90 2.70 2.51 2.37 2.33 2.47 2.56 2.44 2.24 2.42 2.50 2.48 2.31 2.36 2.60 2.88 3.00 2.86 2.92 2.73 2.60 2.77 2.91 2.91 3.50 3.36 3.21 2.72 2.41 2.37 2.31 2.15 2.19 2.24 2.28 2.02 1.88 2.04 2.47 2.63 2.53 2.34
3.19 3.10 3.05 3.01 2.91 2.94 2.93 2.89 2.69 2.62 2.52 2.60 2.66 2.67 2.64 2.68 2.99 3.11 3.16 3.11 2.93 2.78 2.94 2.96 3.16 3.43 3.18 3.03 2.74 2.55 2.43 2.36 2.20 2.20 2.41 2.61 2.32 2.11 2.02 2.18 2.48 2.63 2.65
3.56 3.55 3.53 3.37 3.38 3.40 3.38 3.28 3.10 2.97 2.80 2.63 2.60 2.73 2.76 2.84 3.06 3.24 3.10 2.99 3.11 3.12 3.24 3.42 3.48 3.47 3.36 3.22 3.01 2.66 2.46 2.48 2.03 1.98 2.10 2.25 2.37 2.12 2.24 2.43 2.61 2.59 2.78
4.08 4.25 4.26 4.18 3.95 3.71 3.66 3.65 3.68 3.64 3.39 3.07 2.93 2.91 2.91 2.81 2.93 3.17 3.12 3.18 3.24 3.29 3.32 3.06 3.49 3.46 3.48 3.33 2.76 2.57 2.29 2.27 2.12 1.85 1.88 1.84 1.96 2.00 2.04 2.23 2.44 2.41 2.74
4.37 4.88 4.85 4.66 4.53 4.44 4.34 4.10 4.10 3.86 3.59 3.47 3.36 3.42 3.24 3.09 3.05 3.27 3.23 3.30 3.33 3.42 3.43 3.38 3.60 3.54 3.37 3.27 2.57 2.41 2.18 1.85 1.86 1.84 1.67 1.66 1.74 1.67 1.79 2.09 2.39 2.09 2.43
4.65 5.12 5.35 5.35 5.15 4.85 4.46 4.07 3.90 3.82 3.79 3.65 3.50 3.34 3.20 3.12 3.19 3.51 3.39 3.63 3.54 3.32 3.26 3.35 3.57 3.43 3.17 3.21 3.15 2.63 2.05 1.71 1.74 1.60 1.66 1.82 1.72 1.72 1.93 2.27 2.42 2.29 2.05
4.23 4.67 4.83 4.59 4.46 4.30 4.05 3.95 3.94 4.15 3.87 3.63 3.51 3.36 3.08 3.04 3.14 3.14 3.42 3.32 3.31 3.38 3.27 3.28 3.51 3.31 2.89 3.02 3.25 3.15 2.45 2.19 1.75 1.32 1.58 1.72 1.79 1.99 2.07 2.09 2.43 2.62 2.38
3.18 3.44 3.62 3.78 3.72 3.60 3.59 3.57 3.61 3.83 3.62 3.45 3.37 3.29 2.92 2.77 2.75 2.86 2.94 3.01 3.29 3.22 3.25 3.32 3.26 3.16 2.86 2.79 2.93 3.16 2.71 2.30 1.85 1.37 1.33 1.60 1.96 2.12 2.06 2.16 2.23 2.45 2.57
2.79 2.98 3.04 3.08 3.22 3.26 3.34 3.24 3.09 2.99 2.92 2.88 2.99 2.96 2.90 2.76 2.65 2.67 2.71 2.75 2.81 2.73 2.87 2.62 2.74 2.96 3.08 2.82 2.87 2.79 2.67 2.52 2.37 1.91 1.58 1.59 1.85 2.00 2.14 2.09 2.16 2.29 2.59
2.19 2.42 2.58 2.70 2.81 2.93 3.00 2.93 2.90 2.69 2.69 2.75 2.80 2.82 2.78 2.73 2.70 2.66 2.65 2.63 2.51 2.37 2.49 2.50 2.69 2.70 2.72 2.69 2.75 2.78 2.81 2.76 2.55 2.42 2.16 2.05 1.98 1.74 1.80 1.92 2.07 2.19 2.41
1.93 2.11 2.25 2.40 2.46 2.58 2.63 2.68 2.65 2.60 2.62 2.62 2.63 2.62 2.60 2.60 2.51 2.45 2.43 2.44 2.30 2.28 2.35 2.44 2.53 2.47 2.51 2.64 2.66 2.67 2.79 2.76 2.76 2.78 2.38 2.21 2.06 1.64 1.62 1.62 1.80 1.96 2.27